Location: Huesca
(42.1318°N, 0.4078°W)
Time: 12:14:51
(UTC+01:00)

O/OREOS (USA 219) - Pass Details

Date: 20 November 2024
Orbit: 590 x 609 km, 72.0° (Epoch: 06 December)

Event Time Altitude Azimuth Distance (km) Brightness Sun altitude
Rises 19:21:35 0° 256° (WSW) 2,821 ? -19.4°
Reaches altitude 10° 19:25:25 10° 291° (WNW) 1,923 ? -20.1°
Maximum altitude 19:26:48 11° 310° (NW) 1,835 ? -20.3°
Drops below altitude 10° 19:28:13 10° 329° (NNW) 1,925 ? -20.6°
Enters shadow 19:31:47 - 2° (N) 2,747 ? -21.3°
